Location: Presov
(49.0000°N, 21.2500°E)
Time: 20:30:24
(UTC+01:00)

ISS - Visible Passes

Search period start: 24 March 2019 00:00
Search period end: 03 April 2019 01:00
Orbit: 408 x 411 km, 51.6° (Epoch: 24 March)

Date Brightness Start Highest point End Pass type
(mag) Time Alt. Az. Time Alt. Az. Time Alt. Az.
24 Mar -3.9 19:33:07 10° WSW 19:36:25 77° SSE 19:37:09 50° E visible
24 Mar -0.4 21:09:54 10° W 21:09:55 10° W 21:09:55 10° W visible
25 Mar -3.6 18:42:35 10° SW 18:45:49 52° SSE 18:48:51 11° ENE visible
25 Mar -2.6 20:19:09 10° W 20:21:38 42° WNW 20:21:38 42° WNW visible
26 Mar -3.6 19:28:24 10° W 19:31:42 68° NNW 19:33:13 29° ENE visible
26 Mar -0.8 21:05:17 10° WNW 21:05:59 15° WNW 21:05:59 15° WNW visible
27 Mar -3.8 18:37:41 10° WSW 18:41:00 89° NNW 18:44:19 10° ENE visible
27 Mar -3.0 20:14:32 10° WNW 20:17:27 48° NNW 20:17:27 48° NNW visible
28 Mar -3.2 19:23:45 10° W 19:27:00 53° N 19:28:51 22° ENE visible
28 Mar -1.1 21:00:32 10° WNW 21:01:37 19° WNW 21:01:37 19° WNW visible
29 Mar -3.4 18:32:57 10° W 18:36:14 61° NNW 18:39:31 10° ENE visible
29 Mar -3.3 20:09:49 10° WNW 20:12:58 56° N 20:12:58 56° N visible
30 Mar -3.2 19:19:03 10° WNW 19:22:18 51° N 19:24:16 21° ENE visible
30 Mar -1.4 20:55:43 10° WNW 20:57:01 22° WNW 20:57:01 22° WNW visible
31 Mar -3.9 21:04:58 10° WNW 21:08:18 77° NNE 21:08:19 77° NNE visible
01 Apr -3.5 20:14:13 10° WNW 20:17:31 62° NNE 20:19:35 20° E visible
01 Apr -1.5 21:50:54 10° WNW 21:52:20 22° W 21:52:20 22° W visible
02 Apr -3.8 21:00:05 10° WNW 21:03:22 64° SSW 21:03:36 61° S visible
